EW3791 Weather Reports


Display with metric or nautical units.
time (UTC)temp
F
wind
direction
speed
MPH
gust
MPH
rain 1hr
in
rain 24hr
in
rain mn
in
humidity
%
barometer
mb
20260504210020 80 159 6.0 12.0 0.00 0.00 0.00 63 1011.3
20260504204600 80 193 5.0 15.0 0.00 0.00 0.00 62 1011.5
20260504203035 80 160 5.0 18.0 0.00 0.00 0.00 62 1011.8
20260504201603 80 176 6.0 15.0 0.00 0.00 0.00 62 1012.0
20260504200033 80 127 4.0 11.0 0.00 0.00 0.00 62 1012.3
20260504194506 81 162 4.0 11.0 0.00 0.00 0.00 60 1012.4
20260504193048 80 123 5.0 12.0 0.00 0.00 0.00 60 1012.6
20260504191535 79 127 5.0 18.0 0.00 0.00 0.00 61 1012.8
20260504190106 80 253 5.0 15.0 0.00 0.00 0.00 61 1012.9
20260504184541 79 207 5.0 14.0 0.00 0.00 0.00 60 1013.1
20260504183011 79 137 6.0 20.0 0.00 0.00 0.00 61 1012.9
20260504181556 79 175 8.0 15.0 0.00 0.00 0.00 61 1013.3
20260504180021 79 199 7.0 16.0 0.00 0.00 0.00 60 1013.7
20260504174558 78 148 8.0 14.0 0.00 0.00 0.00 61 1013.9
20260504173033 77 159 6.0 13.0 0.00 0.00 0.00 62 1014.0
20260504171502 78 197 6.0 13.0 0.00 0.00 0.00 63 1014.3
20260504100122 66 146 2.0 7.0 0.00 0.00 0.00 68 1015.0
20260504081516 65 193 2.0 7.0 0.00 0.00 0.00 69 1015.7
20260504080114 65 198 1.0 5.0 0.00 0.00 0.00 69 1016.0
20260504050107 68 143 1.0 6.0 0.00 0.00 0.00 61 1017.6
20260504044546 67 172 0.0 0.0 0.00 0.00 0.00 62 1017.7
20260504043010 68 200 1.0 4.0 0.00 0.00 0.00 61 1017.7
20260504041552 69 212 1.0 6.0 0.00 0.00 0.00 60 1017.8
20260504040036 69 155 2.0 5.0 0.00 0.00 0.00 59 1017.8
20260504034600 69 139 1.0 9.0 0.00 0.00 0.00 59 1017.9
20260504033038 70 124 5.0 10.0 0.00 0.00 0.00 58 1017.8
20260504031513 70 162 3.0 10.0 0.00 0.00 0.00 59 1017.7
20260504030054 70 155 4.0 10.0 0.00 0.00 0.00 58 1017.5
20260504024527 70 117 6.0 13.0 0.00 0.00 0.00 58 1017.5
20260504023110 70 141 5.0 14.0 0.00 0.00 0.00 58 1017.7
20260504021540 71 153 5.0 12.0 0.00 0.00 0.00 58 1017.5
20260504020010 71 163 8.0 13.0 0.00 0.00 0.00 57 1017.5
20260504014607 71 150 5.0 11.0 0.00 0.00 0.00 56 1017.5
20260504013027 72 109 6.0 15.0 0.00 0.00 0.00 55 1017.3
20260504011609 72 144 5.0 12.0 0.00 0.00 0.00 53 1017.2
20260504010051 73 155 7.0 14.0 0.00 0.00 0.00 52 1017.1
20260504004514 73 175 5.0 11.0 0.00 0.00 0.00 52 1017.2
20260504003102 74 216 5.0 12.0 0.00 0.00 0.00 51 1017.1
20260504001531 74 129 5.0 12.0 0.00 0.00 0.00 50 1017.1
20260504000001 75 150 5.0 12.0 0.00 0.00 0.00 49 1017.3
20260503234540 76 184 7.0 13.0 0.00 0.00 0.00 47 1017.2
20260503233012 76 180 5.0 12.0 0.00 0.00 0.00 46 1017.4
20260503231553 77 152 5.0 10.0 0.00 0.00 0.00 43 1017.3
20260503230025 78 109 4.0 8.0 0.00 0.00 0.00 41 1017.4
20260503224609 77 152 4.0 7.0 0.00 0.00 0.00 41 1017.5
20260503223040 77 195 3.0 9.0 0.00 0.00 0.00 42 1017.7
20260503221510 78 135 4.0 6.0 0.00 0.00 0.00 41 1018.1
20260503220049 78 148 3.0 11.0 0.00 0.00 0.00 40 1017.9
20260503214526 78 106 5.0 10.0 0.00 0.00 0.00 41 1017.9
20260503213104 78 172 3.0 12.0 0.00 0.00 0.00 41 1018.3
20260503211535 78 110 5.0 11.0 0.00 0.00 0.00 42 1018.6